Total_Precipitation_Accumulation
2.50 2.34 4.06 4.43 3.99 3.64 3.49 3.46 3.37 3.38 3.48 3.57 3.36 3.09 2.99 2.93 2.85 2.75 2.49 2.41 2.43 2.54 2.56 2.47 2.58 2.58 2.41 2.22 2.15 2.24 2.38 2.49 2.58 2.51 2.64 2.94 2.99 3.34 3.79 3.96 3.92 4.03 3.70
2.03 2.20 3.84 4.13 3.66 3.29 3.23 3.32 3.41 3.46 3.60 3.56 3.36 3.14 3.06 2.99 2.80 2.68 2.39 2.29 2.36 2.34 2.20 2.27 2.41 2.34 2.32 2.42 2.52 2.60 2.59 2.53 2.56 2.66 2.87 3.12 3.15 3.31 3.62 3.99 3.91 4.22 4.01
1.90 2.01 2.97 3.80 3.46 3.11 3.07 3.26 3.59 3.45 3.59 3.46 3.27 3.08 2.97 2.83 2.75 2.71 2.45 2.37 2.46 2.29 2.08 2.14 2.35 2.30 2.22 2.28 2.34 2.54 2.56 2.61 2.73 2.97 3.37 4.04 3.35 3.15 3.45 3.75 3.78 3.73 3.85
1.69 1.79 2.46 3.61 3.32 3.19 3.23 3.44 3.56 3.51 3.63 3.38 3.19 2.94 2.80 2.75 2.90 2.96 2.99 2.92 2.73 2.46 2.25 2.17 2.32 2.24 2.00 2.06 2.25 2.32 2.29 2.44 2.68 2.93 3.25 3.80 3.62 3.22 3.56 3.97 3.82 3.45 3.63
1.58 1.71 2.70 3.63 3.35 3.22 3.25 3.39 3.51 3.66 3.70 3.39 3.06 2.77 2.60 2.69 3.13 3.34 3.28 3.07 2.76 2.52 2.27 2.15 2.21 2.21 2.01 1.91 2.05 2.07 2.11 2.25 2.48 2.34 2.76 3.61 4.08 3.85 3.45 3.79 3.87 3.50 3.44
1.77 1.79 2.67 3.59 3.51 3.34 3.25 3.34 3.52 3.59 3.67 3.53 3.16 2.80 2.70 2.74 2.82 2.90 2.99 2.87 2.64 2.45 2.25 2.24 2.17 2.11 2.09 1.97 1.94 2.01 2.06 2.14 1.97 2.14 2.73 3.31 3.85 3.68 3.17 3.27 3.66 3.52 3.43
1.70 1.80 2.36 3.28 3.35 3.23 3.20 3.45 3.64 3.48 3.43 3.38 3.18 2.84 2.77 2.76 2.74 2.84 2.90 2.85 2.65 2.52 2.35 2.30 2.19 2.07 1.96 1.95 1.92 1.90 1.95 1.71 1.51 2.00 2.61 3.17 3.45 3.46 3.25 3.34 3.65 3.45 3.54
1.69 1.70 2.17 2.95 3.20 3.15 3.26 3.48 3.55 3.45 3.32 3.11 2.84 2.67 2.65 2.77 2.76 2.85 2.87 2.75 2.53 2.52 2.38 2.16 2.06 1.95 1.88 1.89 1.91 1.90 1.84 1.38 1.15 1.62 2.29 3.06 3.64 3.67 3.43 3.34 3.50 3.45 3.60
1.90 1.91 2.28 2.71 2.91 3.34 3.53 3.48 3.47 3.45 3.29 2.98 2.63 2.57 2.61 2.75 2.66 2.70 2.77 2.66 2.39 2.31 2.18 1.97 1.83 1.75 1.80 1.87 1.92 1.88 1.72 1.35 1.23 1.63 1.76 2.61 3.43 3.59 3.33 3.27 3.34 3.47 3.71
2.00 2.01 2.16 2.40 2.49 2.82 3.15 3.47 3.53 3.38 3.25 3.04 2.63 2.51 2.59 2.72 2.73 2.69 2.48 2.52 2.46 2.33 2.19 1.95 1.81 1.77 1.83 1.89 1.88 1.74 1.57 1.29 1.26 1.41 1.91 2.56 3.53 3.70 3.41 3.34 3.40 3.48 3.60
1.88 1.82 1.95 2.11 2.21 2.46 2.78 3.07 3.32 3.17 3.05 2.83 2.49 2.39 2.37 2.30 2.14 2.24 2.20 2.65 2.63 2.48 2.31 2.16 2.03 1.92 1.84 1.77 1.75 1.53 1.23 1.20 1.42 1.59 2.17 3.22 4.05 4.11 3.83 3.58 3.59 3.57 3.47
1.88 1.77 1.78 1.93 2.01 2.11 2.30 2.90 2.96 2.47 2.26 2.05 2.17 2.13 2.07 2.08 1.94 1.63 1.90 2.43 2.56 2.54 2.28 2.11 2.07 1.80 1.44 1.30 1.34 1.21 1.07 1.16 1.36 1.58 2.23 3.58 4.19 4.21 3.84 3.55 3.64 3.67 3.48
1.65 1.60 1.62 1.75 1.69 1.66 1.91 2.29 2.49 2.42 2.30 2.04 1.88 1.83 1.94 1.90 1.74 1.55 1.71 1.89 1.89 1.85 1.71 1.67 1.52 1.26 1.15 1.22 1.23 1.07 1.02 1.15 1.35 1.53 2.33 3.65 4.35 4.30 3.80 3.53 3.53 3.42 3.29
1.47 1.41 1.47 1.50 1.44 1.39 1.50 1.65 1.73 1.92 1.95 1.86 1.62 1.43 1.53 1.70 1.65 1.45 1.47 1.55 1.58 1.55 1.63 1.59 1.49 1.34 1.25 1.24 1.20 1.19 1.20 1.31 1.37 1.56 2.43 3.54 4.57 4.64 4.36 4.11 3.78 3.55 3.34
1.43 1.40 1.44 1.39 1.36 1.34 1.42 1.51 1.41 1.60 1.72 1.70 1.64 1.42 1.34 1.40 1.45 1.38 1.25 1.37 1.43 1.46 1.44 1.43 1.38 1.39 1.45 1.41 1.34 1.34 1.36 1.36 1.37 1.49 2.00 2.85 4.07 4.88 5.05 4.92 4.24 3.80 3.52
1.27 1.36 1.40 1.49 1.50 1.35 1.29 1.33 1.32 1.36 1.49 1.45 1.50 1.43 1.37 1.35 1.34 1.35 1.31 1.39 1.47 1.51 1.46 1.38 1.31 1.42 1.46 1.48 1.43 1.34 1.30 1.22 1.28 1.47 1.81 2.12 2.55 3.36 4.45 4.87 4.54 4.19 3.91
1.16 1.17 1.22 1.37 1.43 1.32 1.30 1.32 1.29 1.38 1.45 1.44 1.39 1.30 1.39 1.35 1.32 1.34 1.37 1.40 1.43 1.52 1.58 1.57 1.50 1.51 1.51 1.61 1.62 1.42 1.32 1.26 1.25 1.42 1.65 1.88 1.80 2.05 3.06 4.06 4.46 4.26 4.10
1.07 1.06 1.08 1.05 1.16 1.26 1.35 1.42 1.49 1.52 1.52 1.51 1.39 1.29 1.27 1.25 1.26 1.33 1.35 1.40 1.46 1.45 1.52 1.65 1.67 1.70 1.69 1.75 1.74 1.52 1.34 1.43 1.32 1.36 1.59 1.68 1.74 1.77 2.13 2.63 3.11 3.55 4.00
1.10 1.10 1.15 1.14 1.18 1.29 1.36 1.50 1.59 1.69 1.74 1.79 1.66 1.64 1.54 1.41 1.42 1.51 1.56 1.55 1.56 1.62 1.64 1.57 1.62 1.75 1.85 1.84 1.67 1.58 1.48 1.50 1.49 1.46 1.68 1.71 1.76 1.81 1.91 1.90 2.09 2.53 3.27
1.20 1.20 1.25 1.38 1.43 1.55 1.70 1.94 2.15 2.27 2.34 2.39 2.32 2.20 2.02 1.77 1.69 1.83 1.85 1.73 1.77 1.89 2.00 1.90 1.98 1.89 1.80 1.86 1.65 1.61 1.61 1.56 1.52 1.61 1.68 1.78 1.94 1.84 1.85 1.84 1.91 1.88 2.32
1.24 1.22 1.22 1.38 1.51 1.59 1.81 2.10 2.60 2.87 2.91 2.74 2.70 2.60 2.37 2.12 2.07 2.23 2.23 2.20 2.20 2.21 2.19 2.15 2.37 2.27 1.98 1.88 2.09 2.08 1.89 1.69 1.61 1.59 1.64 1.89 2.03 1.99 2.12 2.08 1.98 1.85 1.76
1.10 1.13 1.31 1.46 1.57 1.63 1.85 2.13 2.48 2.90 2.99 2.90 2.75 2.65 2.52 2.35 2.30 2.32 2.55 2.65 2.58 2.77 2.78 2.56 2.69 2.73 2.34 2.09 2.42 2.80 2.52 2.26 1.76 1.63 1.78 1.85 1.98 2.15 2.27 2.14 1.95 1.85 1.81
1.04 1.02 1.15 1.40 1.63 1.90 2.14 2.42 2.58 2.85 2.95 2.94 2.76 2.66 2.67 2.56 2.43 2.50 2.61 2.77 2.78 2.84 3.04 3.16 3.07 3.17 2.95 2.50 2.37 2.77 2.76 2.62 2.37 1.96 1.87 1.97 2.11 2.20 2.30 2.29 2.10 1.89 1.82
0.97 0.95 1.04 1.23 1.53 1.96 2.27 2.45 2.66 3.00 3.10 2.95 2.83 2.70 2.70 2.70 2.68 2.80 2.77 2.83 2.85 2.87 2.97 3.13 3.13 3.34 3.46 3.03 2.66 2.40 2.23 2.26 2.48 2.34 2.05 2.00 2.14 2.14 2.16 2.18 2.25 2.15 1.96
0.99 1.01 1.07 1.30 1.64 2.03 2.18 2.37 2.68 2.84 2.94 3.02 2.88 2.78 2.74 2.78 2.81 2.88 2.92 3.02 2.99 2.97 2.88 3.08 3.19 3.34 3.29 3.25 3.12 2.93 2.76 2.50 2.14 2.31 2.36 2.20 2.10 1.98 2.03 2.13 2.30 2.35 2.24
1.04 1.13 1.25 1.43 1.69 2.02 2.20 2.40 2.49 2.63 2.79 2.86 2.88 2.79 2.73 2.76 2.85 2.73 2.67 2.84 2.89 2.90 2.84 2.97 3.10 3.28 3.29 3.33 3.27 2.99 3.00 2.92 2.56 2.52 2.35 2.20 2.27 2.08 1.98 2.03 2.08 2.10 2.21